User: anonymous   Login
Location: Eschertshofen
(49.3064°N, 11.5756°E)
Time: 18:24:51
(UTC+00:00)
Language:

COSMOS 2251 DEB - Orbit

View from above orbital plane
View from above orbital plane
View from above satellite
View from above satellite

Ground track
Ground track

The orbit data is extracted from the following two-line orbital elements,

1 34638U 93036XK  21105.82827109  .00001347  00000-0  31207-3 0  9992
2 34638  74.0457   8.3349 0013175 131.1443 292.0358 14.56018980639766
Epoch (UTC): 15 April 2021 19:52:42
Eccentricity: 0.0013175
inclination: 74.0457°
perigee height: 697 km
apogee height: 715 km
right ascension of ascending node: 8.3349°
argument of perigee: 131.1443°
revolutions per day: 14.56018980
mean anomaly at epoch: 292.0358°
orbit number at epoch: 63976

The dashed part of the orbit path shows where the satellite is in the earth's shadow,  

DLR